Flag for Brazil Weather past 2 weeks in Itabuna, Bahia, Brazil

Now
77 °F

Passing clouds.


Feels Like: 79 °F
Forecast: 65 / 82 °F
Wind: 8 mph from Southeast

Location: Salvador Aeroporto

Current Time: Aug 31, 2014 at 5:28:06 AM

Latest Report: Aug 31, 2014 at 4:00 AM


Visibility: N/A

Pressure: 30.07 "Hg

Humidity: 74%

Dew point: 68 °F

Location of ItabunaLocation

Historic Weather in Itabuna — Graph

°F

Itabuna temperature yesterday

Maximum temperature yesterday: 81 °F (at 9:00 AM)
Minimum temperature yesterday: 75 °F (at 12:00 AM)
Average temperature yesterday: 78 °F

Past Weeks' High & Low Weather Summary

 TemperatureHumidityPressure
High82 °F (Aug 17, 12:00 PM)100% (Aug 25, 2:00 PM)30.18 "Hg (Aug 25, 2:00 PM)
Low39 °F (Aug 25, 2:00 PM)54% (Aug 23, 3:00 PM)29.95 "Hg (Aug 28, 3:00 AM)
Average76 °F76%30.06 "Hg
* Reported Aug 16 4:00 AM — Aug 31 4:00 AM, Itabuna, Weather by CustomWeather, © 2014

Note: Actual official high and low records may vary slightly from our data, if they occured in-between our weather recording intervals... More about our weather records

Advertising

Itabuna weather history for previous 24 hours

 ConditionsComfort  
Time TempWeatherWind HumidityBarometerVisibility
4:00 AM
Aug 31
77 °FPassing clouds.8 mph74%30.07 "HgN/A
3:00 AM77 °FPassing clouds.7 mph74%30.07 "HgN/A
2:00 AM77 °FPassing clouds.10 mph74%30.07 "HgN/A
1:00 AM77 °FPassing clouds.10 mph74%30.09 "HgN/A
12:00 AM75 °FPassing clouds.10 mph83%30.09 "HgN/A
11:00 PM
Aug 30
77 °FPassing clouds.7 mph79%30.09 "HgN/A
10:00 PM77 °FPassing clouds.9 mph74%30.09 "HgN/A
9:00 PM77 °FPassing clouds.9 mph74%30.09 "HgN/A
8:00 PM77 °FPassing clouds.7 mph74%30.07 "HgN/A
7:00 PM77 °FPassing clouds.8 mph79%30.07 "HgN/A
6:00 PM77 °FPassing clouds.7 mph74%30.07 "HgN/A
5:00 PM79 °FScattered clouds.8 mph74%30.04 "HgN/A
4:00 PM81 °FScattered clouds.9 mph70%30.04 "HgN/A
3:00 PM81 °FScattered clouds.9 mph70%30.04 "HgN/A
2:00 PM81 °FScattered clouds.10 mph70%30.07 "HgN/A
1:00 PM81 °FScattered clouds.10 mph70%30.07 "HgN/A
12:00 PM81 °FScattered clouds.10 mph70%30.09 "HgN/A
11:00 AM81 °FPassing clouds.9 mph70%30.09 "HgN/A
10:00 AM81 °FSunny.10 mph66%30.12 "Hg10 mi
9:00 AM81 °FScattered clouds.9 mph70%30.12 "HgN/A
8:00 AM79 °FScattered clouds.8 mph70%30.09 "HgN/A
7:00 AM77 °FScattered clouds.7 mph74%30.07 "HgN/A
6:00 AM75 °FScattered clouds.7 mph78%30.07 "HgN/A
5:00 AM75 °FPassing clouds.6 mph78%30.04 "HgN/A
Weather by CustomWeather, © 2014

See weather overviewHow to use our weather pages